Regional Weather Roundup
Issued by NWS State College, PA

Home | Current Version | Previous Version | Graphics & Text | Print | Product List | Glossary On
Versions: 1 2 3 4 5 6 7 8 9 10 11 12 13 14 15 16 17 18 19 20 21 22 23 24 25 26 27 28 29 30 31 32 33 34 35 36 37 38 39 40 41 42 43 44 45 46 47 48 49 50
517
ASUS41 KCTP 120603
RWRCTP

REGIONAL WEATHER ROUNDUP
NATIONAL WEATHER SERVICE STATE COLLEGE PA
100 AM EST FRI FEB 12 2016

Note: "fair" indicates few or no clouds below 12,000 feet with no
significant weather and/or obstructions to visibility.

* = STATION THAT DOES NOT REPORT PRECIPITATION /E.G. RAIN...SNOW...ETC/
    THUNDER OR FOG.

PAZ002>004-007>009-013>016-020>023-029>032-120700-
WESTERN PENNSYLVANIA

CITY           SKY/WX    TMP DP  RH WIND       PRES   REMARKS
ERIE           CLOUDY    15   3  59 S12       30.22F WCI   2
MEADVILLE      CLOUDY     8   4  83 S5        30.17F WCI   0
FRANKLIN*      PTCLDY     5   0  78 SW5       30.19F WCI  -4
NEW CASTLE     FAIR       2  -2  83 S3        30.23F
BEAVER COUNTY  NOT AVBL
BUTLER*        CLEAR      3  -2  78 CALM      30.24F
PITTSBURGH INT CLEAR      6  -2  69 CALM      30.21F
PITTSBURGH     CLEAR     12   0  58 SW7       30.21F WCI   1
INDIANA*       CLOUDY     5   3  92 CALM      30.23F
LATROBE        CLEAR      3  -2  78 CALM      30.24F
WASHINGTON CO* CLOUDY     1  -4  78 CALM      30.22F
$$

PAZ004>006-010>012-017>019-024>028-033>037-041-042-045-046-049>053-120700-
CENTRAL PENNSYLVANIA

CITY           SKY/WX    TMP DP  RH WIND       PRES   REMARKS
BRADFORD       LGT SNOW   8   3  80 W5        30.08S WCI   0
DUBOIS         CLOUDY     4   2  91 W8        30.14S WCI  -9
CLEARFIELD     PTCLDY     7   2  80 SW5       30.18R WCI  -2
JOHNSTOWN      CLEAR      7  -4  60 NW12      30.10F WCI  -8
ALTOONA        PTCLDY    10   2  69 NW3       30.19F
STATE COLLEGE  PTCLDY    11   2  68 W13       30.20S WCI  -4
WILLIAMSPORT   CLOUDY    16   1  51 W10       30.24R WCI   4
SELINSGROVE    CLEAR     14  -1  51 W3        30.26R
FT INDIANTOWN  CLEAR     15  -2  46 W3        30.25R
CAPITAL CITY   CLEAR     16   0  49 W8        30.28R WCI   5
HARRISBURG     PTCLDY    18   4  54 NW13      30.27S WCI   5
YORK           CLEAR      5  -3  69 CALM      30.27R
$$

PAZ038>040-043-044-047-048-054-055-060>062-067>071-120700-
EASTERN PENNSYLVANIA

CITY           SKY/WX    TMP DP  RH WIND       PRES   REMARKS
SCRANTON       PTCLDY    11  -2  56 W6        30.17R WCI   1
MOUNT POCONO   CLEAR      7  -4  60 NW12      30.05R WCI  -8
ALLENTOWN      MOCLDY    17   1  49 W6        30.24R WCI   9
QUAKERTOWN*    PTCLDY    16   0  48 NW3       30.23S
READING        CLEAR     15  -2  46 W7        30.25S WCI   5
LANCASTER      CLEAR     13   0  56 W7        30.27R WCI   3
COATESVILLE    CLEAR     16   1  53 NW12      30.25R WCI   3
POTTSTOWN      CLEAR     15  -1  49 W7        30.27R WCI   5
BLUE BELL        N/A     18   0  45 W6        30.24R WCI   9
DOYLESTOWN     CLEAR     15  -2  46 W7        30.23R WCI   5
WILLOW GROVE   NOT AVBL
NORTH PHILA    CLEAR     19   0  43 W9        30.28R WCI   8
PHILADELPHIA   CLEAR     21  -4  33 NW14      30.29R WCI   8
$$




USA.gov is the U.S. government's official web portal to all federal, state and local government web resources and services.